Wind_Speed
36 34 33 32 31 30 29 28 27 26 25 24 24 23 23 24 24 24 24 24 24 25 25 26 27 27 28 29 30 31 32 33 33 34 35 35 36 37 37 37 36 36 36
38 36 35 34 33 32 31 30 28 27 26 26 26 26 26 26 26 26 26 26 26 27 27 28 28 29 30 31 32 33 34 34 34 35 36 37 38 38 38 37 37 37 36
40 38 37 36 34 33 33 32 30 29 29 28 28 28 28 28 28 28 28 28 28 29 29 30 30 31 32 33 33 34 35 35 36 37 38 38 39 38 38 38 38 38 37
41 40 39 38 36 35 35 34 33 32 31 30 30 30 30 29 30 30 30 30 30 31 31 32 32 33 34 34 35 36 36 37 38 38 38 39 39 39 39 39 39 39 37
43 42 41 39 37 35 34 34 33 32 32 31 31 31 32 32 32 32 32 32 32 32 33 34 34 34 35 36 37 37 38 39 39 39 39 39 40 40 40 40 40 40 38
44 42 41 39 37 36 35 35 34 34 34 33 33 34 34 34 34 34 34 34 34 35 35 35 35 36 37 37 38 38 39 39 40 40 41 41 41 41 41 41 41 40 38
45 43 42 41 40 39 38 37 37 36 36 36 36 36 36 35 35 35 35 36 36 36 36 36 36 37 37 38 38 38 39 39 40 41 42 42 42 42 42 42 41 40 39
45 45 44 44 43 41 41 40 39 39 38 38 38 38 37 36 36 37 38 38 38 37 37 38 38 37 37 38 39 39 40 41 42 42 42 43 43 43 43 42 41 40 38
45 44 43 43 44 43 41 41 41 41 41 41 40 40 39 39 39 39 39 39 39 39 38 38 38 39 39 39 39 40 41 41 42 43 43 43 43 43 43 42 42 40 39
45 44 43 43 44 44 42 42 42 43 43 43 42 41 41 41 40 40 40 39 39 39 39 39 39 40 39 39 40 41 41 42 43 43 44 44 44 44 44 43 42 41 39
45 45 46 46 46 45 44 43 44 45 44 44 43 43 42 41 41 41 41 41 41 41 41 40 40 40 40 41 41 42 42 43 44 44 45 45 45 45 45 45 43 41 40
45 45 44 45 46 46 46 46 45 45 44 43 43 42 43 43 43 43 42 41 40 40 40 40 40 40 41 42 42 42 43 44 44 45 45 46 46 46 46 44 42 41 39
43 45 45 45 46 47 47 47 46 46 45 44 45 45 44 44 43 43 42 40 40 39 39 40 41 41 42 43 43 43 44 44 45 45 46 46 46 46 45 43 42 40 37
42 44 45 45 45 45 45 45 45 45 46 45 45 46 46 43 42 42 42 41 40 40 39 40 41 43 43 43 43 43 44 44 45 45 46 46 46 45 44 42 40 38 36
41 42 43 45 44 43 44 44 45 46 46 45 45 45 45 44 43 43 43 43 42 41 40 41 43 43 43 43 43 43 44 45 46 46 46 46 45 44 42 41 39 36 35
41 42 43 43 43 44 44 45 46 46 47 46 46 45 45 45 44 44 44 44 43 43 43 42 43 43 43 43 43 44 44 45 45 45 45 44 43 42 40 39 37 35 33
40 41 42 42 43 44 46 46 45 46 46 46 47 48 47 45 45 45 45 45 45 45 45 44 44 44 44 44 44 44 44 44 44 43 43 42 41 40 38 37 36 34 32
39 40 42 43 43 44 45 46 47 47 47 47 47 47 46 46 46 46 46 46 46 46 46 46 45 45 45 45 44 44 44 43 43 42 42 41 39 38 37 35 34 33 31
38 40 42 44 44 45 46 47 47 47 47 47 47 47 47 47 47 46 46 47 47 47 46 45 45 45 44 44 43 43 43 43 42 41 40 39 38 36 35 34 32 31 30
37 39 41 42 43 44 45 46 47 47 47 47 48 47 47 48 47 46 46 47 47 46 45 44 44 43 43 43 43 42 42 41 40 39 38 37 36 35 33 32 31 30 29
40 41 42 43 44 45 45 47 47 48 48 47 47 47 48 48 48 47 46 46 45 44 43 42 42 42 42 42 42 41 40 40 39 37 36 35 34 33 32 31 29 28 27
42 43 44 44 44 44 45 46 46 48 48 47 48 48 48 48 48 48 46 45 44 43 42 42 42 42 41 42 41 40 39 38 37 36 35 34 33 32 30 29 28 27 26
44 45 45 45 46 46 46 46 47 47 47 46 46 47 48 47 47 47 46 45 45 44 44 43 43 42 42 41 40 39 38 37 36 35 34 33 32 30 29 27 26 25 24
47 47 46 47 47 47 47 47 48 48 48 47 47 47 48 48 48 47 46 46 45 45 44 44 43 42 41 40 40 39 38 36 35 34 33 32 30 29 28 26 25 24 23
47 47 47 47 48 48 49 49 48 48 48 48 48 48 48 48 48 47 47 46 45 44 44 43 42 41 40 40 39 38 37 36 34 33 32 31 30 29 27 26 25 25 24
48 48 48 48 49 49 49 49 49 48 48 48 48 48 48 48 47 46 46 45 44 44 43 42 41 41 40 39 38 37 36 35 34 33 31 30 29 28 28 26 25 25 24
Wind_Direction
242 243 245 247 247 248 250 252 254 256 258 259 261 263 265 267 268 269 271 273 276 278 281 284 288 291 294 297 299 302 304 305 307 310 311 311 312 313 314 314 314 314 313
241 242 246 248 248 249 251 252 253 256 258 259 261 263 265 267 269 270 271 273 276 278 281 285 288 291 294 296 298 301 303 304 306 308 309 310 311 312 313 313 312 312 312
241 243 245 247 248 249 250 251 253 256 258 261 262 263 265 268 269 271 272 274 276 279 282 285 288 291 293 295 298 300 302 303 305 307 308 309 310 311 312 311 310 310 310
240 243 245 247 249 249 251 252 253 255 259 262 263 265 266 268 270 271 273 275 276 279 282 285 287 290 292 295 297 299 301 303 305 306 308 309 309 309 310 310 309 308 308
240 242 244 246 248 250 251 253 254 256 259 261 263 265 267 269 270 272 273 275 277 279 282 284 287 289 291 294 296 298 300 302 304 305 307 307 307 308 308 308 308 307 306
238 240 242 245 247 249 251 253 254 255 258 261 263 265 267 269 271 273 274 275 277 279 282 284 286 289 292 294 296 297 299 301 302 304 305 306 306 306 307 307 306 305 304
237 240 244 246 248 250 252 254 255 256 259 261 263 265 268 269 271 273 275 276 278 280 282 284 287 289 292 294 295 297 299 300 302 303 304 305 305 305 306 306 305 304 302
239 241 244 246 248 250 253 254 255 258 260 261 263 266 268 269 271 273 275 276 278 280 282 284 286 288 291 293 295 296 298 300 301 302 303 304 304 304 304 304 303 302 300
240 241 244 248 249 251 253 255 256 258 259 260 263 266 267 268 270 272 274 276 277 280 281 283 285 288 291 293 295 297 298 299 301 302 302 302 302 302 303 303 303 301 300
241 242 245 248 250 252 253 255 258 258 260 262 264 265 267 270 271 272 274 275 277 279 280 283 286 289 291 293 295 297 297 299 300 301 301 301 301 302 302 302 301 300 298
243 245 247 248 250 251 253 255 257 259 261 263 264 265 268 270 271 272 273 275 276 278 280 283 285 288 290 293 294 296 297 298 299 299 299 300 299 300 300 300 300 298 297
246 247 248 250 251 252 253 256 259 260 262 263 265 266 267 270 271 272 274 274 276 277 279 282 284 287 289 292 293 294 295 296 297 297 298 298 298 299 300 300 299 298 296
249 250 251 252 253 255 256 258 259 262 264 265 265 266 269 271 271 272 273 274 275 277 279 282 285 287 288 290 291 292 293 294 295 295 296 297 297 298 299 298 298 297 294
252 254 255 255 257 258 258 260 260 261 264 266 266 267 270 271 271 272 272 273 275 277 279 282 284 286 287 288 289 290 292 293 294 295 296 296 297 297 298 297 297 295 293
257 258 259 258 259 260 261 262 261 261 263 264 266 267 268 269 270 270 271 272 275 278 279 281 283 284 285 286 287 289 291 292 293 294 295 295 296 296 296 296 295 294 291
258 260 260 261 261 263 264 264 263 262 262 262 264 267 269 269 267 269 273 274 276 277 278 280 280 281 283 284 286 288 290 291 292 293 294 295 295 295 295 295 294 292 290
259 259 260 261 262 264 264 264 263 262 262 263 265 267 267 266 267 269 272 274 275 276 277 279 279 280 282 284 286 287 289 290 291 293 294 294 294 294 294 294 292 290 287
261 262 261 262 262 263 263 263 262 262 263 264 265 264 264 265 267 268 269 271 272 274 276 277 277 279 281 284 285 286 288 290 291 292 292 293 293 293 292 292 291 289 286
264 263 263 263 262 263 262 262 262 262 262 263 264 262 263 264 265 266 267 269 271 274 275 275 277 279 281 283 284 286 286 288 289 290 291 291 292 292 291 291 289 287 284
267 266 266 265 265 264 263 262 261 261 261 262 262 262 262 263 265 266 267 269 271 272 273 275 277 278 280 282 283 284 285 287 288 289 289 290 290 290 290 289 288 285 283
270 269 268 266 266 265 263 262 261 261 261 261 260 261 262 264 264 265 268 269 270 271 273 275 276 278 279 280 281 282 284 285 286 286 288 288 288 288 288 288 286 284 281
272 271 269 267 267 266 264 263 262 262 262 261 261 261 262 264 264 266 268 269 270 271 272 274 276 277 277 279 279 281 283 284 284 285 286 286 287 287 287 286 285 282 280
274 273 272 271 269 268 266 264 263 262 263 263 262 262 263 264 264 266 267 267 269 270 272 273 275 275 276 277 278 280 281 283 283 283 284 284 285 285 284 283 282 280 278
275 273 272 271 269 266 264 263 263 263 263 263 262 262 262 263 264 265 265 266 268 270 271 272 273 274 274 275 277 278 280 280 280 281 282 282 282 282 282 280 279 277 275
274 272 271 270 267 265 262 261 260 261 262 262 261 261 262 262 263 264 265 266 267 268 270 271 272 273 273 274 275 277 277 277 278 279 279 279 279 279 278 277 276 275 273
277 274 273 269 267 264 262 260 259 260 261 261 261 262 261 261 262 263 264 265 266 267 269 270 271 272 272 273 273 274 275 275 275 276 277 277 277 276 275 274 274 272 270
Height
5824 5827 5829 5831 5833 5835 5837 5838 5840 5841 5842 5843 5843 5844 5844 5845 5845 5845 5845 5845 5844 5844 5843 5842 5841 5840 5839 5837 5835 5833 5831 5829 5826 5823 5820 5817 5814 5811 5807 5804 5800 5797 5794
5818 5820 5823 5826 5828 5830 5831 5833 5835 5836 5837 5838 5838 5839 5839 5839 5840 5840 5840 5840 5839 5839 5838 5837 5836 5835 5833 5831 5830 5828 5825 5823 5820 5817 5814 5811 5808 5804 5801 5798 5794 5791 5787
5811 5814 5817 5819 5822 5824 5825 5827 5829 5830 5831 5832 5833 5833 5833 5834 5834 5834 5834 5834 5834 5833 5832 5831 5830 5829 5827 5825 5823 5821 5819 5817 5814 5811 5808 5805 5801 5798 5795 5791 5788 5784 5781
5804 5807 5810 5813 5815 5817 5819 5821 5823 5824 5825 5826 5827 5827 5828 5828 5828 5828 5828 5828 5828 5827 5826 5825 5824 5822 5821 5819 5817 5815 5812 5810 5807 5804 5801 5798 5794 5791 5787 5784 5781 5777 5774
5797 5800 5804 5806 5809 5811 5813 5815 5816 5818 5819 5820 5820 5821 5821 5821 5821 5822 5821 5821 5821 5820 5819 5818 5817 5815 5814 5812 5810 5808 5805 5802 5800 5797 5794 5791 5787 5784 5780 5776 5773 5770 5767
5789 5792 5796 5799 5801 5804 5806 5808 5809 5811 5812 5813 5813 5814 5814 5814 5815 5815 5814 5814 5813 5813 5812 5811 5810 5808 5807 5805 5802 5800 5798 5795 5792 5789 5786 5783 5780 5776 5773 5769 5765 5762 5759
5781 5785 5788 5791 5794 5796 5798 5800 5802 5803 5804 5805 5806 5806 5807 5807 5807 5807 5807 5807 5806 5805 5804 5803 5802 5801 5799 5797 5795 5792 5790 5787 5784 5781 5778 5775 5772 5768 5765 5761 5758 5754 5751
5773 5777 5780 5783 5786 5788 5790 5792 5793 5795 5796 5797 5797 5798 5798 5800 5800 5799 5799 5799 5798 5797 5796 5795 5794 5792 5791 5789 5787 5784 5782 5779 5776 5773 5769 5766 5763 5759 5756 5753 5749 5746 5743
5764 5768 5771 5774 5777 5779 5781 5783 5784 5785 5787 5788 5788 5789 5790 5791 5792 5792 5791 5790 5789 5789 5788 5786 5785 5784 5782 5781 5778 5776 5773 5770 5767 5764 5761 5757 5754 5750 5747 5744 5741 5737 5734
5757 5760 5763 5766 5768 5770 5772 5773 5775 5776 5778 5779 5779 5780 5781 5781 5782 5783 5783 5781 5780 5780 5779 5778 5776 5775 5773 5771 5769 5767 5764 5761 5758 5755 5752 5748 5745 5741 5738 5735 5731 5728 5726
5748 5751 5753 5756 5759 5761 5763 5764 5766 5767 5768 5769 5770 5770 5771 5772 5772 5773 5773 5773 5772 5770 5769 5768 5767 5766 5764 5762 5760 5757 5755 5752 5749 5745 5742 5739 5735 5732 5728 5725 5722 5719 5717
5739 5742 5744 5747 5749 5751 5753 5755 5756 5757 5758 5759 5760 5761 5761 5762 5762 5762 5763 5763 5762 5762 5760 5759 5758 5756 5755 5753 5750 5748 5745 5742 5739 5736 5732 5729 5725 5722 5719 5716 5713 5710 5708
5730 5733 5735 5737 5739 5741 5742 5744 5746 5747 5747 5749 5750 5751 5751 5751 5752 5752 5752 5752 5752 5752 5751 5750 5748 5747 5745 5743 5741 5738 5735 5732 5729 5726 5722 5719 5716 5712 5709 5706 5703 5701 5698
5721 5723 5725 5727 5729 5730 5732 5733 5735 5736 5737 5738 5739 5740 5740 5741 5741 5742 5742 5742 5742 5742 5741 5740 5738 5736 5734 5732 5730 5728 5725 5722 5719 5716 5712 5709 5706 5703 5700 5697 5694 5691 5689
5712 5714 5716 5717 5719 5720 5721 5723 5724 5725 5726 5727 5727 5728 5729 5730 5731 5731 5731 5731 5731 5731 5731 5730 5728 5725 5723 5722 5720 5717 5715 5712 5709 5706 5702 5699 5696 5693 5690 5687 5685 5683 5681
5702 5704 5705 5706 5707 5708 5709 5711 5712 5714 5715 5716 5716 5717 5718 5719 5719 5719 5719 5719 5719 5719 5719 5718 5717 5715 5713 5711 5709 5707 5704 5702 5699 5696 5692 5689 5686 5683 5681 5678 5676 5674 5672
5692 5693 5694 5695 5696 5697 5698 5699 5700 5701 5703 5704 5705 5706 5706 5707 5707 5708 5708 5707 5708 5707 5707 5706 5705 5704 5702 5700 5698 5696 5693 5691 5688 5685 5682 5679 5677 5674 5671 5669 5667 5665 5663
5682 5682 5682 5684 5685 5685 5686 5687 5688 5689 5690 5691 5692 5693 5694 5694 5694 5695 5695 5695 5695 5695 5695 5694 5693 5692 5690 5689 5687 5685 5683 5681 5678 5675 5672 5670 5667 5665 5662 5660 5658 5656 5655
5671 5671 5672 5672 5672 5673 5673 5674 5675 5676 5677 5678 5679 5680 5681 5681 5682 5682 5682 5683 5683 5682 5682 5682 5681 5680 5678 5677 5676 5674 5672 5670 5667 5665 5663 5660 5658 5656 5653 5651 5649 5648 5647
5659 5660 5659 5659 5660 5660 5660 5661 5661 5662 5663 5664 5665 5666 5667 5668 5668 5669 5669 5670 5670 5670 5670 5670 5669 5668 5667 5666 5665 5663 5661 5659 5657 5655 5653 5651 5648 5646 5645 5643 5641 5640 5639
5647 5646 5646 5646 5646 5646 5646 5647 5648 5649 5649 5650 5651 5652 5653 5654 5655 5656 5657 5657 5657 5657 5657 5657 5657 5656 5656 5655 5654 5652 5651 5649 5647 5645 5644 5642 5640 5638 5636 5634 5633 5632 5631
5633 5632 5632 5632 5632 5632 5632 5633 5634 5635 5635 5636 5637 5638 5639 5640 5641 5642 5643 5644 5645 5645 5645 5646 5645 5645 5644 5644 5643 5641 5640 5639 5637 5636 5634 5633 5631 5629 5628 5626 5625 5624 5624
5619 5618 5618 5617 5618 5618 5618 5618 5619 5620 5621 5622 5623 5625 5626 5627 5628 5629 5630 5631 5632 5633 5633 5634 5634 5633 5633 5632 5632 5631 5630 5629 5627 5626 5625 5623 5622 5621 5620 5619 5618 5617 5617
5604 5603 5602 5602 5602 5602 5602 5603 5604 5605 5606 5608 5609 5611 5612 5614 5615 5616 5617 5619 5619 5620 5621 5621 5622 5621 5621 5621 5620 5620 5619 5618 5617 5616 5615 5615 5614 5612 5612 5611 5611 5610 5610
5587 5586 5586 5585 5585 5586 5586 5587 5588 5590 5591 5593 5594 5596 5598 5600 5601 5603 5605 5606 5607 5608 5608 5609 5609 5609 5609 5609 5609 5609 5609 5608 5608 5607 5606 5606 5605 5604 5604 5603 5603 5603 5603
5570 5569 5569 5568 5568 5569 5570 5571 5572 5574 5576 5578 5580 5582 5584 5586 5587 5589 5591 5593 5594 5595 5596 5597 5597 5598 5598 5598 5598 5598 5598 5598 5598 5597 5597 5597 5596 5596 5596 5596 5595 5595 5596